Wind_Speed
16 15 13 10 9 10 10 9 9 9 8 7 7 7 7 8 8 8 9 10 11 12 13 14 15 15 15 15 16 17 17 18 18 19 19 20 21 21 22 22 23 23 23 23 24 25 26 28 29 31 30 24 22 22 23 24 24 23 23 23 24 24 24 23 23 22 22 22 23 22 21 21 20 20 19 19 19 19 18 18 19 18 18 17 16
20 17 14 11 10 10 10 10 10 10 10 9 8 8 8 8 9 9 10 10 11 12 13 14 15 16 16 17 17 18 19 20 20 21 22 22 23 24 24 24 24 24 25 24 25 25 26 28 29 31 31 26 23 21 21 22 23 23 23 22 23 23 22 23 23 23 22 22 23 23 23 21 21 21 20 19 19 19 19 19 19 19 18 17 16
22 20 15 12 11 11 11 11 12 12 12 11 10 9 9 9 9 9 10 11 11 12 13 13 15 16 17 17 18 19 20 20 21 22 22 23 24 24 24 25 25 25 26 25 25 25 26 27 29 31 31 28 24 23 21 21 22 22 22 22 22 23 22 22 22 22 23 23 23 23 23 22 22 21 21 20 20 20 20 19 19 19 19 18 17
19 19 16 13 13 12 13 13 13 14 14 13 12 10 9 9 10 10 10 11 12 12 13 13 14 15 16 17 18 19 19 20 21 22 23 24 24 25 25 25 26 26 26 26 26 26 26 27 29 31 33 30 26 25 24 22 22 22 21 21 21 22 23 23 22 22 23 24 24 24 24 23 22 22 22 21 21 21 21 20 20 20 20 19 18
16 18 17 14 13 14 15 15 15 15 14 13 12 10 9 10 10 11 11 12 13 13 13 14 15 15 16 17 18 19 20 20 21 22 23 24 25 25 26 26 26 27 27 28 27 27 26 27 29 31 33 33 29 28 27 25 24 23 22 22 21 21 22 23 23 22 23 24 25 25 25 24 23 22 22 22 21 22 21 21 21 20 20 20 19
14 16 17 14 13 15 16 16 16 15 13 12 11 10 10 10 11 11 12 13 13 14 14 15 16 17 17 18 19 20 20 21 21 22 23 24 25 26 26 26 27 27 28 28 28 28 27 27 28 30 32 34 32 29 28 26 26 25 24 23 23 22 22 22 23 23 22 24 25 25 26 25 24 24 23 23 22 22 22 22 21 21 21 20 20
12 13 16 15 13 14 14 15 15 14 13 12 11 10 10 11 11 12 13 13 14 15 15 16 17 17 18 19 20 21 21 22 22 23 24 25 25 26 26 26 27 28 28 28 29 28 28 28 29 30 31 33 33 31 29 28 27 26 25 24 24 24 23 22 23 23 23 24 23 24 26 25 26 25 25 24 24 23 23 22 22 22 22 21 21
12 12 14 15 13 13 13 14 14 13 13 12 11 11 11 12 12 13 14 14 15 16 17 17 18 18 19 20 21 22 23 23 24 24 25 25 26 26 26 26 27 28 29 29 29 28 28 28 29 30 31 33 33 32 30 29 28 28 26 25 24 24 24 23 23 23 23 24 23 24 25 25 26 26 26 25 25 24 24 23 23 22 22 22 22
11 10 12 14 12 12 13 13 13 13 13 12 12 12 12 13 13 14 14 15 16 17 18 19 20 20 20 22 23 24 24 24 25 25 25 26 26 26 26 27 27 28 29 29 29 29 28 28 29 30 31 32 33 33 32 30 29 28 28 27 26 25 25 25 24 24 24 24 24 24 25 25 25 27 27 26 25 25 24 24 23 23 23 23 23
11 9 10 12 12 12 12 12 12 13 13 13 13 13 13 14 14 14 15 16 17 18 19 20 21 22 22 23 24 25 25 26 26 26 26 27 27 28 28 28 28 28 29 29 29 29 29 29 29 30 31 32 33 33 33 32 30 29 28 29 29 27 26 26 26 25 25 25 24 24 25 25 26 26 28 28 26 25 25 25 24 24 24 24 24
12 10 10 11 10 11 12 12 13 14 14 14 14 14 14 14 14 15 16 17 18 19 20 21 23 23 23 24 25 26 26 27 27 27 27 28 28 29 29 29 29 29 29 30 29 29 29 29 30 31 31 32 33 33 33 33 32 31 29 30 31 31 29 27 26 26 27 27 25 24 24 25 26 27 28 29 29 27 26 25 25 25 24 25 25
11 11 10 9 10 11 12 13 14 14 15 15 15 14 14 14 15 16 17 18 19 20 22 23 24 25 25 25 26 27 28 29 29 29 29 29 29 29 29 30 30 31 31 31 31 30 29 30 30 31 32 33 33 34 34 34 34 33 32 31 32 33 32 30 28 27 28 29 28 27 26 24 26 27 28 29 30 30 28 27 26 26 25 25 25
10 10 9 9 10 12 13 14 15 15 15 15 15 14 14 15 15 17 18 19 21 22 23 24 25 26 26 26 27 28 29 29 29 29 29 29 29 29 29 30 30 31 32 32 32 32 31 30 31 31 32 34 34 35 36 36 36 35 34 33 33 33 34 33 32 30 29 29 29 30 30 27 27 27 27 28 29 30 30 29 27 27 26 26 25
10 9 8 9 10 12 14 15 16 16 16 15 15 15 15 16 17 18 19 20 22 23 23 24 25 26 28 29 30 30 30 30 29 29 29 29 29 29 29 30 30 31 32 33 33 33 32 32 31 31 32 34 35 36 36 37 37 37 36 35 34 34 34 34 34 32 31 30 30 31 31 30 30 28 27 27 27 29 31 31 29 28 27 27 26
9 8 8 10 11 13 15 16 17 17 16 16 16 16 17 18 18 19 20 21 22 23 23 24 24 26 28 29 31 32 32 31 31 30 29 29 29 29 30 30 31 31 32 33 33 34 34 33 32 31 32 34 35 36 36 37 38 38 38 37 36 35 35 35 35 34 33 31 31 31 31 30 31 31 29 27 26 28 31 31 31 30 29 28 27
9 8 8 10 12 14 15 16 17 17 16 16 17 18 19 19 20 20 21 21 22 23 24 25 26 27 28 29 29 30 30 31 32 32 31 30 29 30 31 32 32 32 32 32 33 33 33 34 34 33 32 33 34 36 36 37 38 39 39 38 38 37 36 36 36 35 34 32 31 31 31 30 31 31 29 28 28 27 29 31 32 32 31 30 29
8 8 9 11 13 14 16 17 17 17 16 17 18 19 21 22 21 21 22 22 23 24 25 26 27 28 29 29 29 28 29 30 31 32 32 31 31 32 33 34 34 34 34 34 34 34 34 34 34 34 33 33 34 35 36 37 38 39 39 39 39 38 37 37 38 37 35 33 32 31 31 30 31 31 29 29 29 28 27 29 31 33 33 31 30
7 8 10 12 13 14 15 16 17 17 17 18 19 21 22 23 23 23 23 24 25 26 27 28 28 28 29 29 29 29 29 29 30 30 31 31 32 33 34 35 35 35 35 36 37 37 37 36 35 35 35 35 34 34 36 37 37 38 39 39 39 39 38 37 38 39 37 35 33 32 32 31 31 31 29 29 29 28 27 27 30 33 34 33 32
7 8 11 12 13 14 16 17 17 18 19 20 21 22 23 23 24 25 26 26 27 28 28 28 28 28 29 29 29 30 30 30 29 29 29 31 33 34 34 35 36 36 37 37 38 38 37 37 37 36 36 36 36 36 36 37 37 38 38 39 40 40 39 38 38 38 39 37 34 32 32 32 32 31 30 29 28 28 27 27 28 32 34 34 34
7 9 11 13 14 15 17 18 19 20 21 22 22 23 24 25 26 27 27 28 28 29 29 28 28 29 29 29 30 30 30 30 29 29 29 31 34 36 37 38 39 39 39 39 39 38 37 37 37 37 37 37 37 37 37 37 37 38 38 39 40 40 40 39 38 38 39 39 37 34 33 33 33 32 31 31 29 28 27 27 27 29 32 34 35
8 10 12 14 15 17 18 19 21 21 22 23 24 25 26 27 27 28 28 28 29 29 29 29 29 29 30 30 31 31 31 31 31 31 32 34 36 38 40 41 43 43 43 42 42 41 40 39 38 38 38 38 38 38 38 38 38 38 39 40 40 40 40 40 39 38 38 39 39 36 34 34 35 33 33 33 32 30 29 28 27 27 30 33 35
9 11 13 15 16 18 19 21 22 23 23 24 26 27 27 28 28 29 29 29 29 29 29 30 30 30 31 31 32 32 32 32 32 33 35 37 39 41 42 42 43 43 43 43 43 43 43 42 42 41 40 40 40 40 40 40 40 40 40 40 41 41 41 41 40 39 39 39 39 38 36 35 36 35 33 34 33 31 30 30 28 27 28 33 36
11 13 15 16 18 19 20 22 23 24 25 26 27 28 28 29 29 29 29 30 30 30 30 30 31 32 33 33 33 33 33 32 33 34 36 39 41 42 43 43 43 42 42 43 43 44 44 44 44 44 43 43 43 42 42 42 42 42 42 42 42 42 43 42 42 41 40 40 39 40 39 36 37 37 35 34 34 32 31 30 30 29 29 31 35
12 14 15 17 18 20 21 23 24 25 27 27 28 29 29 30 30 30 30 30 31 31 32 32 33 34 34 34 34 33 33 33 34 36 39 41 42 42 42 42 43 43 43 44 45 45 46 46 46 46 46 45 45 45 45 45 45 45 44 44 43 43 43 44 44 43 43 41 41 40 40 39 38 38 37 36 35 34 33 32 31 31 30 30 33
13 14 16 17 19 21 23 24 25 26 27 28 29 29 30 30 31 31 31 32 32 33 33 33 34 34 34 34 33 33 34 35 38 40 41 42 42 42 42 43 44 44 45 45 45 47 48 48 48 48 48 47 47 46 46 46 47 47 47 47 47 45 45 45 45 45 45 44 43 41 41 41 40 40 39 38 37 36 35 34 32 32 31 30 31
13 14 16 18 20 22 24 25 26 27 28 29 30 30 31 31 31 31 32 33 33 33 33 34 34 34 33 33 33 34 36 39 41 42 42 42 42 43 44 45 46 46 47 47 47 48 48 49 49 49 49 49 49 49 48 48 47 48 48 49 49 49 48 47 46 46 46 46 45 44 43 42 41 41 41 40 39 38 37 36 34 33 33 33 32
14 16 18 20 22 23 25 26 27 28 29 30 31 32 32 32 32 32 33 33 33 33 33 33 33 32 32 32 34 37 39 41 42 42 42 43 44 44 45 45 47 47 48 49 49 49 49 49 50 50 50 50 50 50 50 50 49 49 49 49 50 51 50 50 49 48 48 47 47 46 45 44 43 42 42 42 41 40 39 37 35 34 34 34 33
15 17 19 21 23 24 26 27 28 29 30 31 32 33 33 32 32 33 33 33 33 32 32 32 32 32 32 34 37 39 40 41 42 42 43 44 45 46 46 47 47 48 49 50 50 50 50 50 50 51 51 51 51 51 51 51 51 50 50 51 51 51 52 52 52 51 50 50 49 49 47 46 45 45 44 43 42 42 41 40 37 36 36 34 33
16 18 20 22 24 26 27 28 29 30 31 32 33 33 33 33 33 33 33 32 32 32 32 32 32 33 35 37 38 39 40 41 43 44 45 46 47 48 48 49 49 49 50 51 51 51 51 52 52 52 52 52 52 52 52 52 52 52 51 52 52 52 53 54 54 53 53 52 51 51 50 48 47 47 46 45 44 43 42 42 40 37 37 35 33
17 19 21 23 25 26 28 29 30 31 32 33 34 34 33 33 33 32 32 31 32 32 32 32 33 35 36 37 38 39 41 43 44 46 47 48 49 49 50 50 51 51 51 52 54 54 54 54 55 55 55 54 53 53 53 53 53 53 52 52 53 53 53 54 55 55 55 54 54 53 52 50 49 48 48 47 46 45 43 44 43 40 39 37 33
19 21 23 25 26 27 29 30 31 32 33 34 34 34 33 32 32 31 31 32 32 32 32 33 34 35 36 37 39 41 43 44 46 47 48 49 50 51 52 52 52 53 53 54 55 56 57 56 55 56 56 54 53 52 51 51 51 52 52 52 52 53 54 54 54 56 57 57 56 56 55 53 52 50 50 49 49 47 45 45 45 43 41 38 37
20 22 24 26 27 28 30 31 32 33 34 34 34 33 32 31 31 31 32 32 32 32 32 33 34 35 36 38 41 42 44 46 47 48 49 50 51 52 53 54 54 55 56 57 57 56 57 57 55 54 53 52 51 50 49 48 49 49 50 51 51 51 52 54 54 55 57 58 58 58 58 57 55 52 51 51 51 50 48 47 47 45 44 43 42
22 24 25 27 28 30 31 32 33 34 34 34 33 32 31 31 32 32 32 32 31 31 32 33 34 36 38 40 42 44 46 47 48 49 50 51 52 53 54 55 56 57 57 57 56 54 53 53 52 51 50 50 50 50 49 47 47 48 48 49 50 51 51 52 53 54 56 58 59 60 60 59 58 56 54 52 52 52 51 49 49 48 47 47 46
23 25 26 28 29 30 32 33 34 34 34 34 33 31 31 32 32 32 31 31 31 31 32 33 35 37 39 41 43 45 47 48 49 50 51 52 53 54 55 56 56 56 56 55 54 52 49 49 49 49 49 49 50 50 50 49 48 48 48 49 50 51 51 51 52 53 54 56 58 60 61 61 61 59 57 55 54 54 53 52 51 50 50 50 49
25 26 27 29 30 31 33 34 34 35 34 33 32 32 32 32 32 31 31 30 30 31 32 34 36 38 40 43 44 46 47 49 50 51 52 53 54 54 54 54 54 54 53 53 52 50 49 48 49 49 48 49 50 50 51 50 50 48 48 48 49 50 51 51 52 53 54 55 57 59 61 62 62 62 60 58 56 55 55 54 53 53 52 52 52
26 28 29 30 31 32 33 34 35 35 34 33 32 32 31 31 30 30 30 30 30 31 33 35 37 40 42 44 45 47 48 49 50 51 52 53 53 53 53 52 52 52 51 51 50 50 49 48 48 49 49 49 50 51 51 50 50 49 48 47 47 47 48 50 51 52 53 55 57 58 59 61 62 63 62 61 59 57 57 56 55 55 54 54 54
27 29 30 31 32 33 33 34 35 35 34 33 32 31 30 30 29 29 30 30 31 32 34 36 39 41 43 45 46 47 48 49 50 51 52 52 52 51 51 51 50 50 49 49 49 49 49 49 49 49 49 49 49 49 50 50 49 48 47 47 47 48 48 48 50 51 52 54 56 57 58 59 61 63 64 63 62 60 59 59 57 57 57 56 55
28 30 31 32 33 34 34 34 34 34 33 32 31 30 29 29 29 29 30 31 32 33 36 38 40 42 44 46 47 48 48 49 50 51 51 51 51 50 50 49 49 48 48 48 48 49 49 50 50 49 48 48 48 47 48 49 49 48 47 46 46 47 48 48 49 51 52 53 54 55 57 58 60 61 63 64 64 62 61 61 60 58 58 58 57
30 31 32 33 34 34 34 34 34 34 33 31 30 29 28 28 29 29 30 31 32 35 37 39 41 43 45 46 47 47 48 49 49 50 50 50 50 50 49 48 47 47 47 47 48 49 49 50 49 49 48 48 48 47 47 49 49 48 47 43 37 34 36 39 40 42 46 50 53 54 55 57 59 61 62 63 64 65 63 62 62 61 59 60 59
30 32 33 34 35 35 35 35 34 33 32 30 29 28 28 28 29 29 30 32 34 36 38 40 42 43 45 45 46 47 48 49 49 50 50 50 49 49 48 47 46 46 46 47 49 49 49 50 50 49 49 48 47 48 49 49 45 39 36 33 28 25 26 30 33 36 39 43 47 51 54 56 58 60 61 63 64 65 65 64 64 63 62 61 61
31 32 33 35 36 35 35 35 34 33 31 29 28 28 28 28 29 30 31 32 35 37 39 41 42 44 45 45 46 47 48 49 49 50 50 50 49 48 47 46 45 45 46 48 49 49 49 50 50 50 49 48 50 50 48 43 37 29 26 27 28 29 29 30 34 39 41 40 40 44 49 54 57 59 60 62 63 64 66 66 65 64 64 63 63
31 32 34 35 36 35 35 35 33 32 30 28 28 28 28 29 29 30 32 34 36 38 39 41 42 44 45 45 46 47 47 48 49 49 49 49 48 47 46 45 45 46 47 48 49 50 50 51 51 50 50 50 52 51 44 35 29 26 26 29 32 33 33 31 32 39 43 39 35 36 40 45 49 53 58 61 62 63 64 66 66 66 65 65 64
31 33 34 35 35 35 35 34 33 31 29 28 28 28 28 29 29 31 32 34 36 38 39 41 43 44 45 45 46 46 47 47 48 48 47 47 46 46 45 45 46 47 47 48 49 51 51 52 52 52 52 52 53 49 39 29 26 26 28 32 33 32 31 31 30 34 39 38 35 36 38 41 41 41 47 54 60 63 64 65 66 66 66 66 66
32 33 34 35 35 35 34 34 32 30 29 28 28 28 28 29 30 31 33 35 37 38 40 42 43 44 44 45 46 46 46 46 46 45 45 45 45 44 44 45 46 46 47 49 51 52 53 53 54 54 53 53 53 47 36 28 26 28 30 32 32 30 31 32 33 32 33 31 31 32 36 41 42 37 37 43 50 58 62 64 66 67 66 66 67
32 33 34 34 35 34 34 33 32 30 29 28 28 28 28 29 30 32 33 35 37 38 40 42 42 43 44 45 45 45 45 44 44 44 43 43 43 43 43 43 44 45 48 50 51 53 54 54 55 54 54 55 53 46 36 29 28 30 32 32 31 32 33 34 33 31 29 28 28 28 30 37 41 39 38 40 42 48 56 62 65 66 66 66 66
32 33 34 34 34 34 34 32 31 30 29 28 28 28 29 29 31 32 34 35 37 39 40 41 42 43 44 44 44 44 43 42 42 42 41 41 41 41 40 41 43 45 47 49 50 51 53 55 55 54 55 56 54 47 38 33 32 34 36 34 33 33 34 33 32 30 30 30 30 29 29 33 37 38 39 42 42 42 48 55 63 66 67 66 66
32 33 34 34 34 33 33 32 30 29 29 28 28 28 29 30 31 32 34 35 37 38 40 40 42 43 43 44 43 42 41 41 40 40 39 39 38 38 39 40 43 45 47 48 49 50 52 54 55 55 56 57 56 51 43 37 37 38 38 37 36 34 32 30 30 31 33 34 35 34 31 32 35 36 38 42 43 43 45 49 56 64 68 67 66
32 33 34 34 33 32 32 31 30 29 28 28 28 28 29 30 31 32 34 35 37 38 39 40 41 42 42 42 42 40 40 39 38 38 37 36 35 36 38 41 42 44 46 48 48 49 51 54 54 55 56 57 57 54 47 42 39 38 38 37 35 33 30 30 30 33 36 38 39 38 35 34 36 37 38 42 44 45 46 47 51 58 66 69 67
32 33 33 33 32 31 31 30 29 28 28 28 28 28 29 30 31 32 33 35 36 38 39 40 41 41 41 41 40 39 38 37 37 36 35 34 34 36 39 40 41 43 45 46 47 48 50 53 54 54 54 56 56 55 49 43 39 38 37 36 35 33 33 33 33 34 37 40 41 40 39 38 38 37 39 42 45 48 49 48 48 53 61 68 69
32 33 32 32 31 31 30 30 29 28 27 27 28 28 29 30 31 32 33 35 36 37 38 39 40 40 40 39 38 37 37 36 35 34 32 32 34 36 38 39 41 42 43 44 46 47 49 51 53 53 53 54 55 54 50 43 39 39 38 37 36 36 36 36 37 37 38 40 42 41 41 41 40 39 39 41 44 49 51 50 49 50 56 65 70
32 32 32 31 30 30 30 29 28 27 27 27 27 28 29 30 31 31 33 34 36 37 37 38 38 39 38 37 37 36 35 34 33 32 31 32 34 36 37 39 40 42 43 44 46 47 49 50 52 52 52 53 54 54 50 44 41 40 40 39 39 38 39 42 44 43 40 38 39 39 39 39 40 41 41 42 44 48 53 53 51 50 52 59 68
Wind_Direction
280 282 284 284 289 298 302 303 302 301 300 303 311 319 322 323 325 324 323 323 321 320 317 317 315 315 315 313 313 313 313 313 313 312 311 311 310 312 313 314 315 315 316 317 317 318 316 315 316 313 309 311 313 308 307 308 309 311 308 305 303 299 296 290 286 284 281 278 276 275 273 271 269 268 266 262 259 259 259 259 257 257 260 263 263
281 277 275 274 277 285 290 292 293 291 289 291 296 303 309 313 315 316 317 314 313 313 311 311 311 312 312 312 313 313 314 314 314 313 312 311 311 312 312 311 311 311 311 311 312 313 312 312 313 310 307 309 310 305 307 309 310 309 307 308 304 299 297 293 286 282 282 280 277 275 273 271 268 266 265 262 259 257 257 258 257 257 259 262 262
279 271 265 265 268 275 280 284 285 284 284 287 291 298 305 310 311 312 310 307 306 308 309 310 310 310 310 312 313 314 314 313 312 311 310 309 308 309 308 308 308 307 307 307 307 308 307 307 307 306 305 307 309 309 309 309 309 308 306 307 305 300 297 294 290 285 282 280 277 274 271 269 267 265 264 262 260 257 256 256 256 256 258 260 259
271 264 258 258 264 272 277 280 282 282 284 287 292 299 305 309 309 308 304 303 306 309 311 310 308 307 308 310 311 310 309 308 308 308 308 308 308 308 308 308 307 306 305 304 303 303 303 304 305 305 304 305 308 310 310 308 307 306 305 303 302 300 297 296 295 290 284 280 277 274 270 267 266 265 263 261 259 258 256 254 254 254 256 258 258
268 261 254 253 262 270 276 281 283 285 288 291 294 300 306 308 305 303 302 305 309 310 309 308 307 307 308 310 309 306 306 307 308 309 310 309 309 309 309 308 307 306 304 303 302 302 302 302 302 302 302 303 305 307 308 308 308 307 305 302 300 299 296 296 294 291 287 283 278 274 270 266 265 265 264 262 259 258 256 254 253 253 253 255 256
274 265 254 250 257 268 278 285 287 290 292 292 295 300 304 303 298 299 303 308 309 308 308 310 310 309 310 310 307 306 307 309 310 311 311 310 309 309 308 308 306 304 303 302 301 301 301 300 299 298 298 300 301 302 303 305 306 305 304 303 302 299 297 295 294 291 288 285 280 273 268 263 262 265 265 262 260 258 257 256 254 252 252 252 253
276 265 253 249 256 268 278 285 287 289 289 290 294 298 299 298 298 302 307 308 307 308 309 310 308 308 309 308 306 307 310 312 312 312 311 310 309 308 307 306 305 303 301 301 300 300 299 298 297 296 295 297 298 300 301 302 301 301 303 303 301 299 298 297 295 291 287 287 283 272 265 262 260 261 264 264 261 258 257 256 255 253 251 250 251
274 262 251 248 255 268 276 280 284 284 285 289 294 296 298 299 302 305 307 307 307 307 308 308 307 308 310 309 309 311 313 314 314 313 312 311 309 309 308 307 305 303 301 300 299 298 298 296 295 294 293 294 295 298 299 299 298 299 300 299 298 297 299 300 297 293 288 287 285 276 267 262 260 259 261 263 262 259 257 256 256 254 252 250 249
272 260 249 246 254 264 270 275 279 282 285 290 293 296 299 301 302 302 304 306 306 307 309 310 309 311 312 311 312 313 315 315 315 315 314 313 312 311 310 309 307 305 303 301 299 297 296 294 292 291 290 291 292 294 296 295 295 295 295 294 293 292 294 296 297 298 296 290 286 280 273 266 262 260 259 260 261 260 258 256 255 255 253 251 249
262 254 244 243 252 261 268 275 279 282 285 288 292 295 298 300 300 301 304 306 307 309 310 311 310 311 312 312 313 314 316 316 316 315 315 314 313 312 311 310 308 306 305 303 301 299 296 294 291 289 288 288 289 290 291 292 291 290 289 289 288 288 287 289 291 294 297 296 292 286 281 273 266 262 258 256 258 258 257 256 255 254 253 252 250
257 251 241 239 250 263 271 277 280 282 284 287 291 294 297 299 301 304 307 308 309 310 310 310 309 310 312 313 315 316 317 316 316 315 315 313 312 311 311 309 308 306 305 303 302 300 298 295 292 290 289 288 287 287 287 288 288 287 285 285 285 285 285 285 285 286 288 293 297 294 289 280 273 267 261 256 255 256 256 255 253 252 253 252 250
250 246 241 243 257 267 273 276 278 281 283 286 290 294 299 302 304 307 309 310 310 311 311 310 310 311 313 315 316 317 317 316 316 316 315 314 313 312 311 310 309 307 306 304 303 301 299 297 294 292 290 288 287 285 284 284 285 285 284 283 283 283 284 283 282 282 282 285 290 292 291 288 282 276 268 260 256 255 256 255 253 251 250 251 250
235 237 241 254 267 273 276 278 279 281 284 287 293 298 302 305 307 308 310 310 311 311 310 310 310 311 314 315 314 314 314 315 316 316 315 315 314 314 313 312 310 309 307 306 304 303 301 298 296 293 291 289 287 285 283 282 282 283 283 282 281 281 282 283 282 281 282 283 285 287 289 291 291 286 278 268 259 256 255 254 253 251 249 249 249
227 235 250 264 272 277 279 280 281 283 287 292 298 302 305 307 308 309 309 309 308 308 308 308 308 310 312 314 314 314 315 317 318 317 316 316 316 315 314 313 311 310 308 306 305 303 302 300 297 294 291 289 287 285 284 282 282 282 282 281 281 280 280 281 282 281 280 280 282 284 286 289 290 289 286 277 266 258 255 253 253 252 250 248 247
233 242 256 265 272 277 279 281 283 287 292 298 303 305 306 307 307 307 307 306 305 305 305 305 306 308 311 313 314 315 317 318 319 318 317 316 316 315 314 313 312 310 308 306 304 303 302 301 299 295 292 289 287 285 284 282 282 282 282 281 281 280 280 280 280 280 279 278 278 280 282 285 286 286 286 284 275 263 255 253 252 251 250 248 246
245 249 256 265 272 275 278 282 285 290 295 300 303 303 304 304 304 305 304 303 303 303 304 305 306 308 309 311 312 314 316 317 319 318 317 316 315 316 315 314 313 312 309 307 306 305 303 302 300 297 294 290 287 286 284 282 281 281 281 282 281 280 280 279 279 279 278 277 276 276 278 280 283 284 284 282 279 270 257 252 252 251 249 248 246
250 255 259 266 270 273 278 282 286 291 295 299 300 300 301 303 304 304 304 304 304 304 304 304 306 307 308 310 312 314 315 316 317 317 316 316 317 317 317 316 315 313 311 309 308 307 305 302 300 297 295 292 289 286 285 283 281 280 281 281 281 280 279 279 278 278 277 276 274 274 274 275 277 280 280 279 277 275 265 254 252 252 249 247 246
251 258 263 267 270 274 279 283 288 293 296 298 299 299 301 303 305 306 306 307 306 305 305 305 306 307 309 312 314 315 315 315 315 314 314 314 315 315 315 314 314 312 311 310 308 307 305 303 300 297 295 293 290 288 285 283 281 280 280 280 281 280 279 278 278 278 277 275 273 271 272 272 273 275 277 277 274 274 271 261 253 252 250 247 246
255 263 267 271 275 279 282 286 291 295 297 299 299 300 303 305 307 308 308 308 307 306 306 307 308 310 312 313 314 314 313 313 312 311 311 312 313 313 313 313 312 312 311 309 307 306 304 302 300 298 295 294 292 290 287 285 283 281 279 279 280 279 279 278 277 277 277 276 273 270 269 269 270 271 272 274 274 273 272 268 258 252 251 248 246
261 267 272 277 280 283 286 290 293 297 299 300 301 303 306 308 308 308 307 306 306 307 308 309 310 311 313 313 313 313 313 313 311 310 309 310 311 313 313 314 313 313 311 310 307 305 303 301 299 298 296 295 293 291 289 286 284 282 280 279 278 279 279 277 276 275 275 276 274 270 268 267 267 268 268 270 272 273 272 271 265 256 251 250 246
264 270 275 279 282 286 290 293 297 300 302 304 305 306 308 308 307 306 306 307 308 309 310 311 312 313 314 313 313 313 314 314 312 311 311 312 314 315 315 315 315 314 313 311 309 307 305 303 301 299 297 295 294 292 290 288 285 283 281 279 278 278 278 277 276 274 273 273 273 271 267 266 266 265 266 267 268 270 272 271 268 259 253 252 248
269 274 278 281 285 290 294 298 302 304 306 307 307 307 307 306 306 306 307 309 310 311 312 313 314 314 314 313 314 315 315 315 314 313 314 314 315 315 315 314 314 313 312 311 309 307 306 304 303 301 299 296 294 292 290 288 286 284 282 280 278 277 276 276 275 274 273 271 271 270 267 264 264 264 263 265 266 267 269 269 267 261 255 253 249
272 277 281 286 292 297 301 303 305 307 307 307 306 306 306 306 307 308 309 310 311 313 313 314 314 314 314 314 315 315 315 315 314 314 314 314 315 314 314 313 312 311 310 309 307 306 305 304 302 301 299 298 296 294 291 289 287 285 282 280 278 276 276 275 275 274 272 271 270 270 267 263 261 262 261 261 263 263 265 266 264 261 256 254 250
275 281 288 294 299 302 304 305 306 306 306 306 306 306 306 307 308 309 310 312 313 314 314 314 314 314 315 315 316 315 315 315 315 315 314 314 314 313 312 312 310 309 308 307 306 304 303 302 301 300 298 296 295 293 291 290 288 286 284 281 278 276 274 273 273 273 272 270 269 268 267 264 261 259 258 258 259 260 260 262 262 260 258 256 254
282 290 297 300 302 303 304 305 306 306 306 305 305 306 307 308 309 310 312 313 313 314 314 314 315 315 315 316 316 315 315 315 315 315 315 314 314 313 312 311 309 308 307 306 305 304 302 301 300 299 297 296 294 292 290 288 287 285 284 282 280 277 274 272 271 270 270 269 268 266 266 265 262 259 257 256 255 256 257 258 259 260 258 255 255
293 299 302 302 303 304 305 306 306 305 305 306 307 308 309 310 310 311 312 313 314 315 314 314 315 315 316 316 316 315 315 316 316 315 315 314 314 313 312 311 310 308 307 307 305 304 303 302 300 299 297 296 294 293 291 288 286 284 283 281 280 278 276 273 270 268 267 266 266 265 264 263 262 260 258 255 253 253 254 254 256 258 256 254 252
301 303 303 303 304 305 306 306 306 307 308 309 309 310 310 311 311 311 312 313 314 314 314 314 315 316 316 316 316 315 316 316 315 315 315 314 314 313 312 311 310 309 308 307 306 304 303 302 301 299 297 296 294 293 291 289 287 285 283 281 279 278 276 274 272 269 267 265 264 263 262 261 261 259 257 256 253 251 251 251 252 255 257 256 251
302 303 304 306 307 307 308 308 309 310 311 311 311 311 311 311 311 311 312 312 313 313 314 315 316 317 317 316 316 315 316 315 315 315 315 315 314 313 312 311 310 309 308 307 306 305 304 302 301 299 298 296 294 292 290 289 287 284 282 280 279 277 276 275 272 270 268 266 264 262 260 259 258 258 256 255 253 250 250 249 249 251 253 256 253
303 305 307 309 310 310 311 311 311 312 312 312 311 311 311 310 310 310 311 311 312 312 314 316 317 317 316 316 316 316 316 316 316 316 316 315 315 314 313 312 310 309 308 307 306 305 304 303 301 299 298 297 294 292 290 288 286 284 282 280 278 276 275 274 272 271 268 266 264 262 260 258 256 256 255 254 253 250 248 248 246 247 248 251 252
304 308 310 311 312 313 313 313 313 313 313 312 311 311 310 309 309 310 310 311 312 314 316 318 317 316 316 316 316 316 317 317 317 317 317 316 315 314 313 312 311 310 309 307 307 305 304 304 302 300 299 298 296 294 292 289 287 285 283 280 278 275 273 271 270 270 268 267 265 263 261 258 255 254 253 252 252 249 247 246 245 243 244 246 247
308 311 313 314 314 315 315 314 314 314 313 312 311 310 309 309 310 311 311 312 313 316 317 318 317 316 316 316 317 318 319 319 318 318 317 317 316 315 313 312 311 310 309 308 308 307 305 304 303 302 300 299 298 296 294 292 289 287 284 282 279 277 274 271 269 268 267 266 264 263 261 259 256 253 251 250 250 249 246 244 243 240 240 240 239
313 314 315 315 315 315 315 314 314 314 313 312 310 309 308 309 311 312 313 314 315 317 318 318 317 316 317 318 319 320 319 319 319 318 318 317 316 315 314 313 312 312 311 310 310 310 309 306 305 303 301 300 298 297 295 293 291 289 286 284 281 279 276 273 270 267 265 264 263 262 261 259 257 253 251 249 248 248 245 243 242 239 238 237 236
315 315 315 315 315 315 315 314 314 314 313 312 310 309 309 309 311 312 313 315 316 317 318 317 317 317 319 320 320 320 320 320 319 319 318 317 317 316 315 315 315 314 313 313 312 311 310 309 307 306 304 302 300 299 296 294 292 290 288 285 283 280 278 275 272 269 266 264 261 260 259 258 257 254 252 249 246 246 245 242 241 239 237 236 234
314 314 314 315 315 315 315 314 314 314 314 312 310 309 309 310 311 312 313 315 316 317 317 317 318 319 320 320 320 320 320 320 320 319 319 319 318 318 318 317 317 316 315 315 313 312 312 311 310 308 307 305 302 300 298 295 292 290 287 285 283 281 278 276 274 271 268 265 262 259 257 256 256 255 252 249 246 245 243 241 240 238 236 235 235
311 313 314 315 316 315 315 314 314 315 314 312 310 309 309 310 311 312 313 315 316 316 316 317 319 320 320 320 321 321 321 321 321 321 320 320 320 320 320 319 319 318 317 317 316 315 314 313 311 310 308 306 304 302 300 298 295 292 289 286 283 281 278 275 273 271 268 266 263 260 257 254 253 253 252 250 247 244 243 240 239 238 236 234 235
310 312 314 315 316 315 314 314 314 315 314 311 309 309 309 310 311 313 314 315 315 316 317 319 320 320 320 321 322 322 322 322 322 322 322 321 322 322 322 321 320 320 319 319 318 317 316 316 315 315 313 311 309 307 304 301 299 297 293 290 287 283 279 276 273 270 267 265 264 262 259 256 252 251 251 250 247 245 243 240 238 237 236 234 233
308 310 312 314 315 315 314 314 314 314 313 311 309 309 310 311 312 313 313 313 315 316 318 319 320 321 322 323 323 323 323 323 323 323 323 323 323 323 323 323 322 321 320 320 320 320 321 320 320 319 317 315 312 310 307 304 302 299 296 293 290 286 282 279 275 272 268 265 263 261 260 258 254 251 249 248 247 245 243 241 238 236 235 234 233
306 308 311 313 314 314 314 314 314 314 312 310 309 309 310 312 312 312 312 313 315 317 318 319 321 322 324 324 324 324 324 324 324 324 325 325 325 325 324 323 323 322 321 322 323 324 324 323 321 321 320 318 315 313 309 306 303 300 296 293 290 287 283 279 276 273 269 266 263 261 259 258 256 253 250 248 247 245 243 241 239 236 234 234 232
303 306 309 311 313 314 314 315 314 313 311 309 309 310 311 311 311 310 311 314 316 317 318 321 323 324 325 325 325 325 325 325 325 326 326 326 326 326 325 324 323 323 324 326 325 324 324 323 324 324 324 321 318 316 313 309 307 303 299 294 291 289 287 285 281 277 272 267 263 260 258 257 256 254 251 248 246 245 242 241 239 237 234 233 232
301 304 307 310 312 314 315 315 314 312 311 309 309 310 310 310 310 310 312 314 315 317 320 322 324 325 325 325 325 326 326 326 327 327 327 327 327 326 325 325 325 326 327 326 325 325 325 327 327 327 326 324 321 320 318 314 311 306 300 298 298 296 294 291 287 284 278 273 268 263 259 256 254 253 252 250 247 245 243 240 239 237 235 232 231
299 302 307 310 312 314 314 314 313 312 310 309 309 309 309 308 310 311 313 314 315 318 321 323 325 325 325 326 327 327 327 328 328 328 328 328 328 327 326 326 328 329 328 327 326 327 329 330 330 329 328 327 326 324 322 317 312 306 298 298 300 300 297 292 287 282 278 277 277 273 268 262 256 252 251 250 248 246 244 241 238 237 235 233 231
297 301 306 309 311 313 314 313 312 311 309 309 308 308 308 309 310 312 313 315 317 320 322 324 325 326 327 327 328 329 329 329 330 330 330 329 328 328 329 330 330 330 328 329 330 332 333 333 333 332 332 331 329 328 325 319 313 306 300 299 300 300 298 292 285 280 277 279 282 280 275 271 265 257 252 249 247 246 244 242 239 236 235 233 231
296 300 305 309 311 313 313 312 311 309 308 308 307 307 308 309 311 312 314 316 319 321 323 324 326 327 328 328 329 330 330 331 332 331 331 330 330 331 332 332 331 331 332 334 335 335 336 336 336 335 334 333 332 332 329 321 314 309 306 304 303 302 300 297 292 285 281 283 285 280 273 271 270 265 258 252 247 244 243 242 240 237 234 233 231
295 300 305 309 311 312 312 311 310 308 306 306 306 307 308 310 311 313 315 317 320 322 324 326 327 328 328 329 330 330 331 333 333 332 331 332 333 334 334 333 333 335 338 339 339 339 339 339 339 337 335 335 335 335 331 324 319 317 316 314 310 309 308 306 302 293 289 291 291 285 276 270 268 266 262 257 250 245 241 240 240 238 235 232 231
295 300 305 309 311 311 311 310 308 306 305 305 306 307 308 310 312 314 316 318 321 323 325 327 328 328 329 330 330 331 333 334 333 333 333 334 335 336 335 336 338 341 343 342 342 341 341 341 339 338 337 338 339 339 335 328 326 326 326 323 319 316 315 312 307 297 293 296 296 292 283 275 270 265 261 257 253 248 242 238 236 237 235 232 230
295 301 306 309 310 310 310 309 307 304 304 304 306 307 309 311 313 315 317 320 322 324 326 327 328 329 330 330 331 333 334 334 334 334 336 336 337 337 338 341 343 345 345 344 343 343 342 341 340 340 340 342 343 343 339 335 334 335 334 331 326 322 321 319 314 307 304 303 299 294 286 277 272 268 261 257 252 249 244 238 234 233 233 232 229
295 301 305 309 309 309 308 308 306 304 303 305 307 308 310 312 313 315 318 320 323 325 327 327 328 329 330 331 333 334 335 335 335 336 337 338 339 341 343 345 347 347 347 347 346 344 343 343 343 343 344 345 346 346 343 340 340 339 337 335 330 325 324 324 320 316 314 310 303 296 286 273 267 265 262 257 252 247 244 240 234 230 230 230 228
295 300 305 308 308 307 307 307 305 303 304 306 308 310 311 312 313 315 318 321 324 326 327 328 329 330 331 332 334 335 335 336 336 338 340 341 342 345 347 348 349 349 349 349 348 346 346 346 346 347 347 348 349 348 345 342 340 340 339 336 333 330 330 330 327 322 318 312 304 297 287 273 265 262 261 258 254 248 244 241 236 230 227 227 226
294 300 305 306 306 306 308 308 306 304 306 308 310 311 311 312 313 316 319 322 325 326 327 328 330 331 332 333 335 336 336 337 339 341 342 343 345 347 349 350 351 351 351 351 350 348 348 350 350 350 350 350 350 348 346 342 341 341 340 337 337 339 338 335 331 324 317 311 305 298 288 276 268 263 258 257 254 249 244 240 237 232 226 224 224
294 300 304 305 305 307 309 308 306 306 308 310 311 311 311 312 314 317 321 323 325 326 327 329 330 331 333 335 335 336 337 339 341 343 343 345 347 348 350 352 353 353 353 353 353 352 352 353 353 353 352 352 351 349 347 344 343 343 343 342 343 345 343 339 334 329 322 314 307 299 288 279 271 263 256 252 252 250 244 238 235 233 227 223 222
295 300 303 304 305 308 310 309 308 308 309 310 311 311 311 313 315 319 322 324 325 327 328 329 331 332 334 335 335 336 339 341 342 343 344 346 348 349 351 353 354 354 354 355 356 356 355 355 356 355 354 354 354 352 350 348 346 346 347 349 349 348 348 346 342 338 332 323 314 305 295 285 276 267 257 249 247 247 244 237 233 232 228 222 220
Height
5846 5847 5847 5847 5847 5847 5848 5848 5847 5846 5846 5845 5843 5842 5840 5839 5838 5837 5836 5836 5835 5834 5834 5833 5832 5832 5831 5830 5829 5828 5827 5826 5825 5824 5823 5822 5820 5819 5818 5817 5815 5814 5812 5811 5809 5807 5805 5802 5800 5796 5793 5793 5793 5792 5790 5789 5788 5787 5786 5784 5783 5782 5781 5780 5779 5778 5777 5776 5776 5775 5774 5774 5773 5773 5773 5773 5773 5773 5773 5773 5773 5773 5773 5774 5774
5844 5844 5845 5846 5846 5846 5846 5846 5846 5846 5845 5844 5843 5841 5840 5839 5838 5837 5836 5835 5834 5834 5833 5832 5831 5830 5829 5828 5827 5826 5825 5824 5822 5821 5820 5819 5818 5817 5816 5815 5813 5812 5811 5809 5808 5806 5804 5801 5798 5794 5790 5791 5791 5789 5788 5786 5786 5785 5783 5781 5780 5779 5778 5777 5776 5775 5775 5774 5773 5773 5772 5771 5771 5771 5771 5771 5771 5771 5771 5771 5771 5771 5772 5772 5772
5842 5842 5843 5844 5844 5844 5844 5845 5845 5845 5844 5843 5842 5841 5840 5839 5838 5837 5836 5835 5834 5833 5832 5831 5830 5829 5828 5826 5825 5824 5823 5822 5821 5819 5818 5817 5816 5815 5814 5813 5812 5810 5809 5807 5806 5804 5802 5800 5796 5792 5788 5787 5788 5787 5786 5784 5783 5782 5780 5779 5778 5776 5775 5774 5773 5773 5772 5772 5771 5770 5770 5769 5769 5769 5769 5769 5769 5769 5769 5769 5769 5769 5770 5770 5770
5839 5840 5841 5841 5842 5842 5842 5843 5843 5843 5843 5842 5841 5840 5839 5838 5837 5836 5835 5834 5833 5832 5831 5830 5829 5828 5827 5825 5824 5823 5822 5821 5820 5818 5817 5816 5814 5813 5812 5811 5810 5808 5806 5805 5803 5801 5800 5798 5795 5791 5786 5785 5786 5786 5785 5783 5781 5779 5778 5777 5775 5774 5773 5772 5772 5771 5770 5769 5768 5768 5767 5767 5767 5766 5766 5766 5766 5766 5766 5766 5766 5767 5767 5768 5768
5837 5838 5838 5839 5839 5840 5840 5841 5841 5841 5841 5841 5840 5839 5838 5836 5835 5834 5834 5832 5831 5830 5830 5829 5828 5827 5825 5824 5823 5821 5820 5819 5818 5817 5815 5814 5812 5811 5810 5809 5807 5805 5803 5801 5800 5799 5798 5796 5793 5789 5785 5784 5785 5784 5783 5782 5780 5778 5777 5775 5773 5771 5770 5770 5769 5768 5767 5766 5765 5765 5765 5765 5764 5764 5764 5764 5764 5764 5764 5764 5764 5764 5765 5765 5766
5836 5836 5837 5837 5838 5838 5839 5839 5839 5839 5839 5839 5838 5837 5836 5835 5834 5833 5832 5831 5830 5829 5828 5827 5826 5825 5824 5823 5821 5820 5819 5818 5816 5815 5813 5811 5810 5808 5807 5806 5804 5802 5801 5799 5797 5796 5795 5794 5791 5788 5785 5782 5782 5782 5781 5780 5778 5776 5775 5774 5772 5769 5768 5768 5767 5765 5764 5763 5762 5762 5762 5762 5762 5762 5762 5762 5762 5762 5762 5762 5762 5762 5762 5763 5763
5834 5835 5835 5836 5836 5836 5837 5838 5838 5838 5837 5837 5836 5835 5834 5833 5832 5831 5830 5829 5828 5827 5826 5826 5825 5823 5822 5821 5819 5818 5817 5816 5814 5813 5811 5809 5807 5806 5805 5803 5802 5800 5798 5796 5794 5793 5792 5791 5788 5786 5783 5781 5779 5779 5779 5777 5775 5774 5773 5772 5771 5768 5766 5766 5765 5763 5762 5761 5760 5759 5759 5759 5759 5759 5759 5759 5759 5759 5759 5760 5760 5760 5760 5760 5761
5832 5833 5834 5834 5835 5835 5836 5836 5836 5836 5836 5835 5835 5834 5833 5832 5831 5829 5828 5827 5826 5825 5825 5824 5823 5821 5820 5818 5816 5815 5814 5813 5811 5810 5808 5806 5805 5803 5802 5800 5799 5796 5795 5793 5792 5790 5789 5788 5786 5783 5781 5778 5776 5776 5776 5774 5772 5771 5770 5769 5768 5766 5764 5763 5762 5760 5759 5758 5757 5757 5756 5757 5756 5756 5756 5757 5757 5757 5757 5758 5758 5758 5758 5758 5758
5830 5831 5832 5833 5833 5834 5834 5834 5835 5835 5834 5834 5833 5832 5832 5830 5829 5827 5826 5826 5825 5824 5823 5822 5820 5819 5818 5816 5814 5813 5812 5810 5808 5807 5805 5803 5802 5800 5799 5797 5796 5793 5791 5790 5788 5787 5786 5785 5783 5780 5778 5776 5773 5772 5772 5771 5770 5769 5767 5766 5764 5763 5762 5761 5760 5759 5758 5756 5756 5755 5754 5754 5754 5753 5753 5754 5754 5755 5755 5755 5755 5756 5756 5756 5756
5829 5830 5831 5832 5832 5832 5833 5833 5833 5833 5833 5832 5831 5831 5830 5829 5827 5826 5825 5824 5823 5822 5820 5819 5818 5816 5815 5814 5812 5811 5809 5807 5806 5804 5802 5801 5799 5797 5796 5794 5793 5791 5788 5787 5785 5784 5783 5781 5779 5777 5775 5773 5771 5769 5768 5767 5767 5766 5764 5762 5761 5760 5759 5758 5757 5756 5756 5755 5754 5753 5752 5752 5751 5750 5751 5751 5751 5751 5752 5752 5753 5753 5753 5754 5754
5828 5829 5830 5831 5831 5831 5831 5831 5831 5831 5830 5830 5829 5829 5828 5827 5825 5824 5823 5822 5821 5820 5818 5817 5815 5814 5813 5811 5810 5808 5806 5805 5803 5801 5799 5798 5796 5794 5793 5791 5789 5788 5786 5784 5782 5781 5780 5778 5776 5774 5771 5769 5767 5766 5765 5764 5762 5762 5761 5759 5757 5756 5756 5755 5754 5753 5753 5753 5752 5752 5750 5749 5748 5748 5748 5748 5748 5748 5749 5749 5750 5750 5751 5751 5752
5827 5828 5829 5829 5830 5830 5830 5829 5829 5829 5829 5828 5827 5827 5826 5825 5823 5822 5821 5820 5819 5818 5816 5815 5813 5811 5810 5808 5807 5805 5803 5801 5800 5798 5796 5794 5793 5791 5790 5788 5786 5784 5783 5781 5779 5778 5777 5775 5773 5771 5768 5766 5764 5762 5761 5760 5758 5757 5757 5756 5754 5752 5752 5752 5751 5750 5750 5749 5750 5749 5748 5747 5746 5745 5745 5745 5746 5746 5746 5746 5747 5747 5748 5748 5749
5826 5827 5827 5827 5828 5828 5828 5828 5827 5827 5827 5826 5825 5824 5823 5823 5822 5821 5819 5818 5817 5816 5814 5812 5810 5808 5807 5806 5804 5803 5801 5799 5797 5795 5793 5791 5790 5788 5786 5785 5783 5781 5779 5778 5776 5775 5774 5772 5770 5768 5765 5762 5760 5758 5756 5755 5754 5753 5752 5752 5751 5749 5748 5747 5747 5747 5747 5746 5746 5746 5745 5745 5744 5743 5742 5742 5743 5743 5743 5743 5744 5744 5744 5745 5746
5825 5825 5825 5825 5826 5826 5826 5826 5826 5825 5825 5824 5823 5822 5821 5821 5820 5819 5818 5816 5815 5814 5812 5810 5808 5806 5804 5802 5801 5799 5797 5795 5794 5791 5789 5788 5786 5785 5783 5781 5780 5778 5776 5774 5773 5771 5770 5769 5767 5765 5762 5759 5757 5755 5753 5752 5750 5749 5748 5747 5747 5746 5745 5743 5742 5743 5743 5743 5742 5742 5742 5742 5741 5741 5740 5739 5740 5740 5740 5741 5741 5742 5742 5742 5743
5823 5823 5823 5823 5824 5824 5825 5825 5824 5823 5822 5821 5821 5820 5819 5819 5818 5817 5816 5815 5814 5812 5810 5808 5806 5804 5802 5799 5797 5795 5793 5791 5790 5788 5786 5785 5783 5782 5780 5779 5777 5775 5774 5772 5770 5768 5766 5765 5763 5762 5759 5756 5753 5751 5750 5748 5747 5745 5744 5743 5742 5742 5741 5739 5738 5738 5739 5739 5738 5738 5738 5738 5737 5737 5737 5737 5737 5737 5737 5737 5738 5739 5739 5740 5740
5821 5821 5822 5822 5822 5823 5823 5823 5822 5822 5821 5820 5819 5818 5818 5817 5817 5816 5814 5813 5812 5810 5808 5806 5803 5802 5800 5797 5795 5792 5790 5788 5786 5785 5783 5781 5780 5779 5777 5775 5774 5772 5770 5769 5767 5765 5763 5761 5759 5758 5755 5753 5750 5747 5746 5744 5743 5741 5740 5739 5738 5737 5736 5735 5734 5733 5734 5734 5734 5734 5734 5734 5733 5733 5734 5734 5733 5733 5733 5734 5735 5735 5736 5737 5737
5819 5820 5820 5821 5821 5822 5822 5821 5821 5820 5820 5819 5818 5817 5816 5815 5814 5813 5812 5811 5809 5807 5805 5803 5801 5799 5797 5794 5792 5790 5788 5786 5784 5781 5779 5778 5777 5775 5773 5772 5770 5768 5767 5765 5763 5761 5759 5758 5756 5754 5751 5749 5747 5744 5742 5740 5739 5738 5736 5734 5733 5732 5732 5731 5729 5729 5729 5730 5730 5730 5730 5730 5729 5729 5730 5731 5730 5730 5730 5731 5731 5732 5732 5734 5735
5818 5818 5819 5820 5820 5820 5820 5820 5819 5819 5818 5817 5816 5815 5814 5813 5812 5810 5809 5807 5806 5804 5802 5800 5798 5796 5793 5791 5789 5787 5786 5784 5782 5779 5777 5775 5774 5772 5771 5769 5767 5765 5763 5761 5759 5757 5755 5753 5752 5750 5747 5745 5743 5740 5738 5736 5735 5734 5732 5730 5729 5728 5727 5727 5725 5724 5724 5725 5726 5726 5726 5726 5726 5726 5726 5727 5727 5727 5726 5727 5728 5728 5729 5730 5731
5816 5817 5818 5818 5819 5819 5819 5818 5817 5817 5816 5815 5814 5813 5811 5810 5808 5807 5805 5804 5802 5801 5799 5797 5794 5792 5790 5788 5786 5785 5783 5781 5780 5778 5775 5773 5771 5769 5768 5766 5764 5762 5760 5758 5756 5753 5751 5749 5747 5745 5743 5741 5739 5736 5734 5732 5731 5729 5728 5727 5725 5724 5723 5722 5722 5720 5719 5719 5721 5722 5722 5722 5722 5722 5722 5723 5723 5723 5723 5723 5724 5725 5725 5726 5728
5815 5816 5816 5817 5817 5817 5817 5816 5815 5815 5814 5813 5811 5810 5808 5807 5805 5804 5802 5801 5799 5797 5795 5793 5791 5789 5787 5785 5784 5782 5780 5778 5777 5775 5773 5771 5768 5766 5763 5762 5760 5758 5756 5753 5751 5749 5747 5745 5743 5741 5738 5736 5734 5732 5730 5728 5726 5725 5723 5722 5721 5719 5718 5718 5718 5717 5715 5714 5715 5717 5718 5718 5718 5718 5718 5718 5719 5719 5719 5719 5720 5720 5721 5722 5724
5814 5814 5815 5815 5815 5815 5814 5813 5813 5812 5811 5810 5808 5806 5805 5804 5802 5801 5799 5797 5795 5793 5791 5789 5787 5786 5784 5782 5780 5778 5776 5775 5773 5771 5769 5767 5765 5762 5759 5756 5754 5752 5750 5748 5745 5743 5742 5740 5738 5736 5734 5731 5729 5727 5725 5723 5721 5720 5718 5717 5715 5714 5713 5713 5712 5712 5712 5710 5709 5711 5712 5713 5713 5714 5714 5714 5714 5715 5715 5715 5716 5716 5717 5718 5719
5812 5813 5813 5813 5813 5813 5812 5810 5810 5809 5808 5806 5805 5803 5802 5801 5799 5798 5796 5794 5792 5790 5787 5786 5784 5782 5781 5779 5777 5775 5773 5771 5769 5767 5765 5763 5760 5758 5755 5753 5750 5747 5745 5743 5740 5738 5736 5734 5732 5730 5728 5726 5724 5722 5720 5717 5716 5714 5713 5712 5710 5709 5708 5707 5707 5707 5707 5706 5705 5705 5706 5708 5708 5708 5709 5709 5709 5710 5711 5711 5712 5712 5713 5713 5714
5810 5811 5811 5811 5810 5810 5809 5808 5807 5806 5805 5803 5802 5800 5799 5797 5796 5794 5792 5790 5788 5786 5784 5783 5781 5779 5777 5775 5774 5772 5770 5768 5766 5764 5761 5759 5756 5754 5751 5749 5747 5745 5742 5739 5736 5734 5731 5729 5726 5724 5722 5720 5718 5716 5714 5712 5710 5708 5707 5706 5705 5703 5703 5702 5701 5701 5701 5701 5701 5700 5700 5702 5702 5703 5704 5704 5704 5705 5706 5706 5708 5708 5708 5709 5710
5809 5809 5809 5808 5808 5807 5806 5805 5804 5803 5802 5800 5799 5797 5796 5794 5792 5790 5788 5786 5785 5783 5781 5780 5778 5776 5774 5772 5771 5769 5767 5765 5763 5760 5758 5755 5753 5750 5748 5745 5742 5740 5738 5735 5732 5729 5726 5724 5721 5719 5717 5715 5712 5710 5708 5706 5703 5702 5700 5699 5698 5698 5697 5696 5695 5695 5695 5695 5695 5695 5694 5695 5696 5697 5698 5699 5700 5700 5701 5702 5703 5704 5704 5704 5705
5807 5807 5806 5806 5805 5804 5804 5803 5802 5800 5799 5797 5796 5794 5793 5791 5789 5787 5785 5783 5782 5780 5778 5776 5774 5772 5771 5769 5767 5765 5763 5761 5759 5756 5754 5752 5749 5746 5743 5741 5738 5735 5733 5731 5727 5723 5720 5718 5715 5713 5710 5708 5707 5704 5702 5700 5698 5695 5693 5692 5691 5690 5690 5689 5689 5689 5688 5688 5689 5689 5689 5689 5690 5691 5692 5694 5695 5695 5696 5697 5698 5699 5700 5700 5701
5805 5804 5804 5803 5803 5802 5801 5800 5799 5798 5796 5794 5793 5791 5789 5787 5785 5783 5781 5780 5778 5777 5775 5772 5771 5769 5767 5765 5763 5761 5759 5757 5755 5752 5750 5748 5745 5742 5739 5736 5733 5729 5727 5725 5722 5719 5715 5711 5709 5707 5704 5701 5699 5697 5695 5693 5691 5689 5687 5685 5683 5682 5682 5682 5681 5681 5682 5682 5682 5683 5683 5683 5684 5685 5686 5687 5689 5690 5691 5691 5693 5694 5695 5695 5696
5802 5802 5802 5801 5801 5800 5799 5798 5797 5795 5793 5791 5789 5788 5786 5784 5782 5780 5778 5777 5775 5773 5771 5769 5767 5765 5763 5761 5759 5757 5755 5753 5751 5749 5746 5743 5741 5738 5735 5732 5728 5724 5721 5718 5715 5713 5710 5706 5702 5699 5698 5695 5693 5690 5688 5686 5684 5682 5680 5678 5676 5674 5673 5673 5673 5674 5674 5674 5675 5676 5677 5678 5678 5678 5679 5681 5682 5684 5685 5686 5687 5688 5689 5691 5691
5800 5800 5800 5800 5799 5797 5796 5795 5793 5792 5790 5788 5786 5785 5783 5781 5779 5777 5775 5774 5772 5770 5768 5766 5764 5761 5759 5757 5755 5754 5751 5749 5747 5744 5742 5739 5736 5733 5730 5727 5724 5721 5717 5713 5710 5706 5703 5701 5697 5693 5690 5688 5686 5683 5681 5678 5676 5675 5673 5670 5669 5667 5666 5665 5665 5665 5665 5666 5667 5668 5669 5671 5671 5672 5673 5674 5676 5678 5680 5681 5682 5683 5684 5685 5687
5799 5799 5798 5797 5796 5795 5793 5792 5790 5789 5787 5785 5783 5782 5780 5778 5776 5774 5772 5770 5768 5766 5764 5762 5760 5758 5756 5754 5752 5750 5748 5745 5743 5740 5737 5734 5731 5728 5724 5721 5718 5716 5712 5707 5704 5701 5697 5694 5691 5687 5683 5680 5679 5676 5673 5671 5668 5666 5665 5663 5661 5659 5658 5656 5656 5656 5657 5657 5658 5659 5661 5663 5664 5665 5666 5667 5669 5671 5673 5675 5676 5678 5679 5680 5681
5797 5797 5796 5795 5794 5792 5791 5789 5788 5786 5784 5783 5780 5779 5777 5775 5773 5771 5769 5767 5765 5763 5761 5758 5756 5755 5753 5751 5749 5746 5744 5741 5738 5735 5732 5728 5725 5722 5718 5715 5712 5708 5706 5702 5697 5693 5691 5687 5683 5680 5676 5672 5670 5668 5665 5663 5660 5658 5656 5654 5652 5651 5650 5649 5647 5647 5647 5648 5649 5650 5651 5654 5656 5658 5659 5660 5662 5664 5667 5669 5670 5672 5674 5675 5677
5795 5795 5794 5792 5791 5790 5788 5786 5785 5783 5782 5780 5778 5776 5774 5771 5770 5768 5766 5763 5761 5759 5757 5755 5753 5751 5749 5747 5745 5742 5739 5736 5733 5729 5726 5723 5719 5716 5712 5709 5705 5702 5698 5695 5691 5685 5682 5680 5676 5672 5669 5665 5661 5659 5657 5654 5651 5649 5647 5645 5643 5641 5640 5640 5639 5638 5638 5639 5640 5640 5642 5644 5647 5649 5651 5653 5654 5656 5659 5662 5664 5666 5668 5671 5672
5793 5792 5791 5790 5789 5787 5786 5784 5782 5780 5779 5777 5775 5773 5770 5768 5766 5764 5762 5760 5757 5755 5754 5752 5750 5748 5746 5743 5741 5738 5735 5731 5728 5724 5721 5717 5713 5710 5706 5702 5699 5695 5691 5687 5684 5679 5673 5670 5668 5665 5661 5657 5653 5651 5649 5647 5644 5641 5639 5636 5634 5632 5631 5630 5630 5629 5629 5629 5630 5631 5632 5633 5636 5640 5642 5644 5646 5648 5651 5654 5656 5659 5662 5664 5666
5791 5790 5789 5788 5786 5785 5783 5781 5780 5778 5776 5773 5771 5769 5767 5765 5763 5761 5759 5756 5754 5752 5751 5749 5747 5745 5742 5739 5736 5733 5730 5726 5723 5719 5715 5711 5707 5703 5699 5695 5691 5688 5684 5680 5677 5673 5668 5663 5660 5657 5653 5650 5646 5642 5641 5640 5637 5634 5631 5628 5625 5624 5622 5621 5620 5620 5619 5619 5619 5620 5622 5623 5626 5629 5633 5636 5638 5640 5643 5646 5649 5652 5655 5657 5660
5788 5788 5787 5785 5784 5782 5780 5778 5776 5774 5772 5770 5768 5766 5764 5762 5760 5758 5756 5753 5751 5750 5748 5746 5744 5741 5738 5735 5732 5729 5725 5721 5718 5714 5710 5705 5701 5697 5693 5689 5684 5680 5677 5673 5670 5667 5663 5658 5654 5651 5647 5643 5639 5635 5632 5630 5629 5627 5624 5620 5618 5615 5613 5612 5611 5610 5609 5609 5609 5610 5611 5613 5615 5618 5622 5626 5629 5631 5634 5637 5641 5644 5647 5649 5652
5786 5785 5784 5783 5781 5779 5777 5775 5773 5771 5769 5767 5765 5763 5761 5759 5757 5755 5753 5751 5749 5747 5745 5743 5740 5738 5734 5731 5728 5724 5720 5717 5712 5709 5705 5700 5696 5692 5687 5683 5678 5674 5670 5666 5663 5660 5657 5653 5648 5645 5641 5637 5632 5628 5624 5621 5619 5617 5615 5612 5609 5607 5605 5603 5602 5601 5599 5599 5598 5599 5600 5603 5605 5608 5612 5616 5619 5622 5625 5629 5632 5635 5639 5642 5644
5783 5782 5781 5780 5778 5777 5775 5773 5770 5768 5766 5764 5762 5760 5758 5756 5754 5752 5750 5748 5746 5744 5742 5739 5737 5734 5730 5727 5723 5720 5716 5712 5708 5704 5700 5695 5691 5687 5682 5678 5673 5669 5664 5660 5657 5653 5650 5647 5643 5638 5634 5630 5625 5620 5616 5613 5610 5607 5605 5603 5600 5598 5596 5593 5592 5591 5590 5589 5588 5588 5590 5593 5596 5598 5601 5605 5609 5613 5616 5619 5623 5627 5630 5634 5637
5781 5780 5779 5777 5776 5774 5772 5770 5767 5765 5763 5761 5759 5757 5755 5753 5751 5749 5747 5745 5743 5741 5739 5736 5733 5730 5727 5723 5719 5715 5711 5707 5703 5699 5695 5691 5687 5682 5678 5673 5669 5664 5660 5656 5652 5647 5643 5640 5637 5632 5627 5623 5619 5613 5608 5604 5602 5599 5597 5594 5591 5588 5587 5585 5582 5581 5580 5579 5578 5579 5580 5583 5585 5588 5591 5594 5599 5603 5606 5610 5614 5618 5622 5626 5629
5778 5777 5776 5775 5773 5771 5769 5767 5765 5762 5760 5758 5756 5754 5752 5750 5748 5747 5745 5743 5741 5738 5735 5733 5730 5726 5723 5719 5715 5711 5707 5703 5699 5694 5690 5686 5682 5678 5674 5669 5665 5661 5656 5652 5648 5643 5639 5634 5631 5627 5622 5617 5612 5607 5602 5597 5593 5590 5588 5587 5583 5578 5577 5576 5573 5571 5569 5569 5569 5570 5571 5573 5575 5578 5581 5584 5588 5593 5597 5601 5605 5610 5614 5617 5621
5776 5775 5773 5772 5770 5768 5766 5764 5761 5759 5757 5755 5753 5751 5749 5748 5746 5744 5742 5740 5738 5735 5732 5729 5726 5722 5719 5715 5711 5707 5703 5699 5695 5690 5686 5682 5678 5674 5670 5665 5661 5657 5652 5648 5644 5639 5635 5630 5625 5621 5617 5611 5605 5601 5596 5590 5585 5580 5577 5576 5575 5572 5569 5567 5565 5562 5559 5558 5559 5561 5563 5564 5565 5567 5570 5574 5578 5582 5587 5591 5595 5600 5605 5609 5613
5773 5772 5771 5769 5767 5765 5763 5761 5758 5756 5754 5753 5751 5749 5747 5745 5744 5742 5740 5738 5735 5732 5729 5726 5722 5719 5715 5711 5707 5703 5699 5695 5691 5687 5683 5679 5674 5670 5666 5662 5658 5653 5649 5645 5640 5636 5631 5626 5621 5616 5611 5606 5600 5595 5589 5583 5578 5574 5570 5568 5568 5567 5565 5562 5559 5555 5552 5550 5551 5552 5553 5554 5556 5558 5560 5564 5568 5571 5576 5581 5586 5591 5595 5600 5604
5770 5769 5767 5766 5764 5762 5760 5757 5756 5754 5752 5750 5748 5746 5745 5743 5741 5739 5737 5735 5732 5730 5726 5723 5720 5716 5712 5708 5703 5699 5695 5691 5687 5682 5678 5674 5670 5666 5662 5658 5654 5650 5646 5641 5636 5632 5626 5621 5616 5611 5605 5600 5593 5588 5582 5576 5572 5570 5567 5564 5563 5562 5560 5558 5555 5549 5545 5545 5547 5546 5545 5544 5546 5549 5551 5554 5557 5561 5565 5570 5575 5580 5585 5590 5595
5767 5766 5764 5762 5760 5759 5756 5754 5753 5751 5749 5747 5745 5744 5742 5740 5738 5736 5734 5732 5729 5727 5724 5720 5717 5713 5709 5704 5700 5695 5691 5687 5683 5678 5674 5670 5666 5662 5658 5654 5651 5647 5643 5638 5632 5627 5622 5616 5610 5605 5600 5594 5587 5581 5576 5572 5568 5566 5563 5561 5558 5556 5554 5552 5551 5544 5538 5539 5542 5541 5538 5535 5536 5539 5541 5542 5546 5550 5554 5559 5564 5569 5575 5580 5586
5764 5762 5761 5759 5757 5755 5754 5752 5750 5748 5746 5744 5743 5741 5739 5737 5735 5733 5732 5729 5726 5724 5721 5717 5714 5709 5705 5701 5697 5692 5688 5683 5679 5675 5670 5666 5662 5658 5654 5650 5646 5643 5638 5634 5628 5622 5617 5611 5605 5599 5594 5589 5582 5576 5571 5568 5565 5563 5560 5556 5553 5551 5548 5545 5544 5539 5534 5534 5535 5534 5532 5528 5527 5530 5531 5532 5534 5538 5543 5548 5552 5558 5564 5569 5575
5760 5759 5758 5756 5754 5752 5751 5749 5747 5745 5743 5742 5740 5738 5736 5735 5733 5731 5729 5726 5724 5721 5718 5714 5710 5706 5702 5698 5694 5690 5686 5681 5677 5672 5668 5663 5659 5655 5651 5647 5643 5639 5634 5628 5623 5618 5612 5607 5601 5595 5589 5584 5577 5571 5567 5564 5562 5559 5556 5552 5547 5545 5542 5539 5536 5533 5530 5530 5529 5528 5526 5521 5519 5522 5523 5522 5523 5527 5532 5537 5541 5546 5552 5559 5565
5757 5756 5755 5753 5751 5749 5748 5746 5744 5742 5741 5739 5737 5735 5734 5732 5730 5728 5726 5723 5721 5718 5714 5711 5707 5704 5700 5696 5692 5688 5683 5679 5674 5670 5666 5661 5657 5653 5649 5645 5641 5636 5631 5625 5619 5614 5608 5603 5597 5591 5585 5579 5573 5567 5563 5560 5558 5555 5551 5547 5543 5540 5537 5533 5530 5527 5526 5525 5523 5522 5520 5514 5512 5514 5515 5513 5514 5516 5519 5524 5529 5534 5540 5547 5554
5754 5753 5752 5750 5748 5746 5745 5743 5741 5739 5738 5736 5734 5733 5731 5729 5727 5725 5723 5720 5718 5715 5711 5708 5705 5701 5697 5693 5689 5685 5681 5677 5673 5669 5664 5660 5656 5652 5648 5644 5640 5635 5630 5624 5618 5612 5606 5600 5595 5588 5582 5575 5568 5563 5559 5557 5554 5550 5546 5542 5539 5535 5532 5528 5524 5522 5521 5520 5518 5516 5514 5509 5505 5505 5506 5504 5505 5507 5508 5512 5517 5522 5528 5535 5543
5751 5750 5748 5747 5745 5743 5742 5740 5738 5736 5735 5733 5731 5730 5728 5726 5724 5722 5720 5717 5715 5712 5709 5705 5702 5698 5695 5691 5687 5683 5679 5675 5671 5667 5663 5659 5655 5652 5647 5643 5638 5633 5628 5623 5617 5611 5605 5599 5592 5586 5579 5573 5566 5560 5556 5553 5550 5547 5543 5539 5535 5532 5529 5525 5519 5516 5514 5513 5509 5508 5508 5503 5497 5497 5497 5495 5496 5498 5498 5501 5505 5511 5517 5524 5531
5747 5746 5745 5743 5742 5740 5739 5737 5735 5733 5732 5730 5728 5727 5725 5723 5722 5719 5717 5715 5712 5709 5706 5703 5699 5696 5692 5688 5684 5681 5677 5674 5670 5666 5662 5658 5655 5651 5647 5642 5638 5633 5627 5621 5616 5610 5604 5598 5591 5584 5577 5571 5565 5559 5554 5551 5549 5545 5541 5537 5533 5529 5525 5521 5516 5510 5507 5504 5500 5497 5497 5493 5489 5489 5489 5488 5488 5489 5489 5491 5495 5500 5506 5513 5520
5744 5743 5741 5740 5739 5737 5735 5734 5732 5730 5729 5727 5725 5724 5722 5721 5719 5717 5714 5712 5709 5706 5703 5700 5697 5693 5690 5686 5682 5679 5676 5672 5668 5664 5661 5658 5654 5650 5646 5642 5637 5633 5627 5621 5616 5610 5604 5597 5591 5584 5578 5571 5565 5559 5554 5550 5547 5544 5539 5535 5531 5526 5521 5517 5512 5507 5501 5495 5490 5486 5484 5481 5479 5481 5481 5480 5479 5478 5479 5483 5487 5491 5496 5502 5509
5740 5739 5738 5737 5735 5734 5732 5730 5729 5727 5726 5724 5723 5721 5720 5718 5716 5714 5711 5709 5706 5704 5701 5698 5694 5691 5687 5684 5680 5677 5674 5670 5667 5663 5660 5657 5654 5650 5646 5641 5637 5632 5628 5623 5617 5611 5604 5598 5592 5585 5579 5573 5566 5559 5553 5549 5545 5541 5537 5532 5528 5523 5517 5512 5508 5502 5495 5487 5479 5475 5472 5469 5468 5469 5471 5471 5469 5467 5469 5473 5478 5481 5486 5492 5499
5737 5736 5735 5733 5732 5731 5729 5727 5725 5724 5723 5721 5720 5718 5717 5715 5713 5711 5708 5706 5703 5701 5698 5695 5692 5689 5685 5682 5679 5675 5672 5669 5666 5662 5659 5656 5653 5649 5645 5641 5636 5632 5627 5622 5616 5610 5604 5598 5592 5586 5580 5573 5566 5559 5552 5548 5544 5539 5534 5529 5524 5519 5513 5507 5500 5494 5487 5479 5471 5464 5460 5458 5456 5456 5457 5459 5459 5457 5458 5463 5468 5472 5477 5483 5489